Location: Six Mile Lake
(44.9000°N, 79.7170°W)
Time: 18:10:13
(UTC-04:00)

ESTCUBE 1 - Pass Details

Date: 03 July 2022
Orbit: 646 x 657 km, 97.9° (Epoch: 07 August)

Event Time Altitude Azimuth Distance (km) Brightness Sun altitude
Exits shadow 21:45:19 - 101° (E) 2,610 ? -6.0°
Reaches altitude 10° 21:48:06 10° 73° (ENE) 2,052 ? -6.4°
Maximum altitude 21:49:15 11° 58° (ENE) 1,993 ? -6.5°
Drops below altitude 10° 21:50:24 10° 43° (NE) 2,057 ? -6.7°
Sets 21:54:21 0° 8° (N) 2,977 ? -7.2°
